GW2652 Weather Reports


Display with metric or nautical units.
time (UTC)temp
F
wind
direction
speed
MPH
gust
MPH
rain 1hr
in
rain 24hr
in
rain mn
in
humidity
%
barometer
mb
20260502205211 47 263 3.0 3.0 0.00 0.01 0.01 53 1009.6
20260502204708 46 182 0.0 1.0 0.00 0.01 0.01 51 1009.7
20260502204206 46 313 6.0 7.0 0.00 0.01 0.01 52 1009.8
20260502203703 46 297 5.0 8.0 0.00 0.01 0.01 52 1009.9
20260502203200 46 299 8.0 9.0 0.00 0.01 0.01 51 1009.9
20260502202654 46 234 2.0 3.0 0.00 0.01 0.01 52 1010.0
20260502202153 47 138 4.0 4.0 0.00 0.01 0.01 50 1010.0
20260502201650 46 251 4.0 7.0 0.00 0.01 0.01 52 1010.1
20260502201146 46 257 6.0 8.0 0.00 0.01 0.01 52 1010.2
20260502200642 46 221 2.0 2.0 0.00 0.01 0.01 52 1010.1
20260502200139 46 194 1.0 2.0 0.00 0.01 0.01 53 1010.3
20260502195637 46 305 3.0 4.0 0.00 0.01 0.01 51 1010.2
20260502195133 47 194 0.0 0.0 0.00 0.01 0.01 53 1010.1
20260502194630 46 166 1.0 1.0 0.00 0.01 0.01 53 1010.2
20260502194127 46 259 2.0 2.0 0.00 0.01 0.01 52 1010.2
20260502193623 46 118 1.0 1.0 0.00 0.01 0.01 49 1010.3
20260502193120 46 266 1.0 1.0 0.00 0.01 0.01 53 1010.6
20260502192616 46 108 1.0 1.0 0.00 0.01 0.01 51 1010.5
20260502192114 47 254 2.0 3.0 0.00 0.01 0.01 51 1010.7
20260502191610 47 247 4.0 4.0 0.00 0.01 0.01 53 1010.5
20260502191108 46 185 2.0 4.0 0.00 0.01 0.01 49 1010.9
20260502190605 46 336 4.0 6.0 0.00 0.01 0.01 48 1010.5
20260502185556 48 195 2.0 2.0 0.00 0.01 0.01 47 1010.7
20260502185048 48 267 4.0 6.0 0.00 0.01 0.01 47 1010.9
20260502184544 47 107 0.0 1.0 0.00 0.01 0.01 50 1010.9
20260502184040 48 125 2.0 3.0 0.00 0.01 0.01 48 1010.9
20260502183537 48 230 2.0 2.0 0.00 0.01 0.01 50 1010.7
20260502183033 47 244 2.0 2.0 0.00 0.01 0.01 49 1010.7
20260502182527 47 198 2.0 3.0 0.00 0.01 0.01 51 1010.6
20260502182024 47 232 4.0 6.0 0.00 0.01 0.01 49 1010.7
20260502181522 48 274 4.0 6.0 0.00 0.01 0.01 46 1010.7
20260502181021 49 112 4.0 7.0 0.00 0.01 0.01 45 1010.9
20260502180517 49 269 2.0 3.0 0.00 0.01 0.01 46 1010.5
20260502170436 50 79 6.0 8.0 0.00 0.01 0.01 46 1010.4
20260502163919 48 156 1.0 1.0 0.00 0.01 0.01 55 1010.6
20260502163415 47 289 3.0 6.0 0.00 0.01 0.01 57 1010.5
20260502162913 46 254 2.0 3.0 0.00 0.01 0.01 56 1010.7
20260502162410 47 64 1.0 2.0 0.00 0.01 0.01 51 1010.7
20260502161907 48 76 0.0 2.0 0.00 0.01 0.01 54 1010.6
20260502161403 47 317 3.0 4.0 0.00 0.01 0.01 52 1011.0
20260502160901 49 170 1.0 1.0 0.00 0.01 0.01 57 1010.9
20260502160359 48 189 1.0 2.0 0.00 0.01 0.01 51 1010.9
20260502152340 47 278 3.0 4.0 0.00 0.01 0.01 54 1011.0
20260502151838 45 326 4.0 4.0 0.00 0.01 0.01 57 1011.1
20260502151334 45 115 1.0 1.0 0.00 0.01 0.01 58 1010.7
20260502150832 46 62 2.0 6.0 0.00 0.01 0.01 61 1010.7
20260502150328 46 265 4.0 6.0 0.00 0.01 0.01 59 1010.9
20260502130716 42 290 3.0 6.0 0.00 0.01 0.01 72 1011.2
20260502130214 42 293 4.0 6.0 0.00 0.01 0.01 73 1011.1
20260502123700 42 280 3.0 6.0 0.00 0.01 0.01 75 1010.9
20260502123156 42 263 3.0 3.0 0.00 0.01 0.01 76 1010.7
20260502122653 42 291 4.0 6.0 0.00 0.01 0.01 76 1011.0
20260502122149 42 103 1.0 1.0 0.00 0.01 0.01 79 1011.0
20260502121648 42 95 0.0 0.0 0.00 0.01 0.01 86 1010.9
20260502121145 43 82 4.0 6.0 0.00 0.01 0.01 86 1010.9
20260502120641 42 70 2.0 2.0 0.00 0.01 0.01 88 1011.0
20260502120138 43 142 2.0 2.0 0.00 0.01 0.01 90 1011.0
20260502115636 41 182 0.0 1.0 0.00 0.01 0.01 92 1010.9
20260502115132 39 135 1.0 2.0 0.00 0.01 0.01 94 1011.1
20260502114628 39 153 0.0 0.0 0.00 0.01 0.01 97 1011.1
20260502114126 39 272 0.0 0.0 0.00 0.01 0.01 98 1011.2
20260502113623 39 271 1.0 2.0 0.00 0.01 0.01 99 1011.0
20260502113121 39 271 0.0 1.0 0.00 0.01 0.01 99 1011.1
20260502112619 39 206 0.0 0.0 0.00 0.01 0.01 99 1011.0
20260502112116 39 174 0.0 0.0 0.00 0.01 0.01 99 1011.0
20260502111613 38 174 0.0 0.0 0.00 0.01 0.01 99 1011.0
20260502111110 38 174 0.0 0.0 0.00 0.01 0.01 99 1010.6
20260502110608 38 174 0.0 0.0 0.00 0.01 0.01 99 1010.7
20260502110106 38 174 0.0 0.0 0.00 0.01 0.01 99 1010.6
20260502105603 38 174 0.0 0.0 0.00 0.01 0.01 99 1010.9
20260502105100 38 174 0.0 0.0 0.00 0.01 0.01 99 1010.9
20260502104556 38 230 0.0 0.0 0.00 0.01 0.01 99 1010.5
20260502104054 38 230 0.0 0.0 0.00 0.01 0.01 99 1010.7
20260502103552 38 230 0.0 0.0 0.00 0.01 0.01 99 1010.5
20260502103050 38 230 0.0 0.0 0.00 0.01 0.01 99 1010.4
20260502102546 38 230 0.0 0.0 0.00 0.01 0.01 99 1010.6
20260502102043 38 230 0.0 0.0 0.00 0.01 0.01 99 1010.5
20260502101541 38 230 0.0 0.0 0.00 0.01 0.01 99 1010.3
20260502101039 38 230 0.0 0.0 0.00 0.01 0.01 99 1010.3
20260502100537 38 230 0.0 0.0 0.00 0.01 0.01 99 1010.4
20260502091512 39 231 1.0 2.0 0.00 0.01 0.01 98 1009.9
20260502091009 39 198 0.0 0.0 0.00 0.01 0.01 98 1010.0
20260502090506 39 198 0.0 0.0 0.00 0.01 0.01 98 1009.9
20260502071401 39 172 0.0 1.0 0.00 0.01 0.01 98 1009.7
20260502070859 39 137 0.0 1.0 0.00 0.01 0.01 98 1009.7
20260502070356 39 141 0.0 1.0 0.00 0.01 0.01 98 1009.6
20260502065855 39 140 1.0 1.0 0.00 0.01 0.01 98 1009.2
20260502065353 39 138 0.0 0.0 0.00 0.01 0.01 98 1009.1
20260502064850 40 141 0.0 0.0 0.00 0.01 0.01 97 1009.3
20260502064348 39 124 0.0 0.0 0.00 0.01 0.01 97 1009.5
20260502063845 39 151 0.0 0.0 0.00 0.01 0.01 97 1009.7
20260502063343 40 71 1.0 1.0 0.00 0.01 0.01 97 1009.6
20260502062840 39 54 0.0 0.0 0.00 0.01 0.01 97 1009.5
20260502062337 40 231 2.0 2.0 0.00 0.01 0.01 98 1009.6
20260502061836 40 199 2.0 2.0 0.00 0.01 0.01 98 1009.5
20260502061333 40 111 1.0 2.0 0.00 0.01 0.01 99 1009.4
20260502060829 40 111 0.0 0.0 0.00 0.01 0.01 98 1009.6
20260502060324 40 191 0.0 0.0 0.00 0.01 0.01 98 1009.5
20260502055822 40 173 1.0 2.0 0.00 0.01 0.01 98 1009.6
20260502055320 40 259 2.0 2.0 0.00 0.01 0.01 98 1009.5
20260502054819 40 197 0.0 0.0 0.00 0.01 0.01 98 1009.4
20260502054316 40 104 2.0 3.0 0.00 0.01 0.01 97 1009.0
20260502053814 40 106 1.0 1.0 0.00 0.01 0.01 97 1009.1
20260502053311 41 129 1.0 2.0 0.00 0.01 0.01 97 1009.4
20260502052809 41 313 4.0 6.0 0.05 0.01 0.01 98 1009.5
20260502052306 41 270 2.0 4.0 0.05 0.01 0.01 98 1009.2
20260502051804 41 162 2.0 3.0 0.00 0.00 0.00 98 1009.4
20260502051303 41 172 0.0 1.0 0.00 0.00 0.00 98 1009.4
20260502050758 41 195 2.0 2.0 0.00 0.00 0.00 98 1009.2
20260502050254 42 171 0.0 1.0 0.00 0.00 0.00 98 1009.5
20260502045752 41 252 2.0 2.0 0.00 0.00 0.00 98 1009.5
20260502045248 42 219 1.0 2.0 0.00 0.00 0.00 98 1009.4
20260502044745 42 223 1.0 2.0 0.00 0.00 0.00 97 1009.4
20260502044241 42 219 1.0 2.0 0.00 0.00 0.00 98 1009.4
20260502043739 42 201 0.0 1.0 0.00 0.00 0.00 97 1009.6
20260502043237 42 225 1.0 1.0 0.00 0.00 0.00 98 1009.5
20260502042736 42 205 1.0 1.0 0.00 0.00 0.00 98 1009.4
20260502042233 42 261 1.0 2.0 0.00 0.00 0.00 98 1009.3
20260502041731 42 240 3.0 3.0 0.00 0.00 0.00 99 1009.3
20260502041228 42 181 1.0 1.0 0.00 0.00 0.00 99 1009.2
20260502040725 42 204 1.0 1.0 0.00 0.00 0.00 99 1009.6
20260502040222 42 205 0.0 0.0 0.07 0.00 0.00 99 1009.4
20260502035718 42 108 1.0 2.0 0.07 0.15 0.15 99 1009.2
20260502035215 43 140 0.0 0.0 0.00 0.14 0.14 99 1009.4
20260502034712 42 140 0.0 0.0 0.00 0.14 0.14 99 1009.3
20260502034211 42 140 0.0 0.0 0.00 0.14 0.14 99 1009.1
20260502033708 42 140 0.0 0.0 0.00 0.14 0.14 99 1009.3
20260502033206 43 140 0.0 0.0 0.00 0.14 0.14 99 1009.4
20260502032702 43 140 0.0 0.0 0.00 0.14 0.14 99 1009.3
20260502032158 42 140 0.0 0.0 0.00 0.14 0.14 99 1009.3
20260502031656 43 140 0.0 0.0 0.00 0.14 0.14 99 1009.3
20260502031154 42 140 0.0 0.0 0.00 0.14 0.14 99 1009.2
20260502030652 42 140 0.0 0.0 0.00 0.14 0.14 99 1009.3
20260502030150 42 140 0.0 0.0 0.00 0.14 0.14 99 1009.4
20260502025647 42 139 1.0 1.0 0.00 0.14 0.14 99 1009.2
20260502025145 42 139 1.0 1.0 0.00 0.14 0.14 99 1009.5
20260502024642 42 139 0.0 0.0 0.05 0.14 0.14 99 1009.5
20260502024140 42 171 0.0 1.0 0.05 0.14 0.14 99 1009.5
20260502023638 42 171 0.0 0.0 0.07 0.13 0.13 99 1009.5
20260502023135 42 171 0.0 0.0 0.07 0.13 0.13 99 1009.6
20260502022632 42 171 0.0 0.0 0.00 0.12 0.12 99 1009.6
20260502022129 42 171 0.0 0.0 0.05 0.12 0.12 99 1009.6
20260502021626 42 171 0.0 0.0 0.05 0.12 0.12 99 1009.6
20260502021123 42 171 0.0 0.0 0.00 0.11 0.11 99 1009.5
20260502020621 42 171 0.0 0.0 0.00 0.11 0.11 99 1009.4
20260502020117 42 171 0.0 0.0 0.00 0.11 0.11 99 1009.4
20260502015616 43 171 0.0 0.0 0.00 0.11 0.11 99 1009.6
20260502015112 43 171 0.0 0.0 0.00 0.11 0.11 99 1009.8
20260502014609 43 171 0.0 0.0 0.00 0.11 0.11 99 1009.8
20260502014106 43 171 0.0 0.0 0.00 0.11 0.11 99 1009.6
20260502013601 43 171 0.0 0.0 0.07 0.11 0.11 99 1009.6
20260502013058 43 171 0.0 0.0 0.07 0.11 0.11 99 1009.7
20260502012555 43 171 0.0 0.0 0.05 0.10 0.10 99 1009.6
20260502012053 43 171 0.0 0.0 0.12 0.10 0.10 99 1009.6
20260502011549 43 171 0.0 0.0 0.07 0.09 0.09 99 1009.8
20260502011045 43 171 0.0 0.0 0.00 0.08 0.08 98 1009.6
20260502010543 43 171 0.0 0.0 0.00 0.08 0.08 98 1009.3
20260502010039 43 171 0.0 0.0 0.00 0.08 0.08 98 1009.5
20260502005537 43 171 0.0 0.0 0.00 0.08 0.08 97 1009.5
20260502005035 43 171 0.0 0.0 0.05 0.08 0.08 97 1009.7
20260502004530 43 171 0.0 0.0 0.05 0.08 0.08 97 1009.4
20260502004027 43 171 0.0 0.0 0.00 0.07 0.07 97 1009.4
20260502003525 44 171 0.0 0.0 0.07 0.07 0.07 97 1009.3
20260502003022 43 171 0.0 0.0 0.07 0.07 0.07 97 1009.5
20260502002518 44 171 0.0 0.0 0.07 0.06 0.06 97 1009.4
20260502002016 44 171 0.0 0.0 0.07 0.06 0.06 96 1009.3
20260502001513 44 171 0.0 0.0 0.05 0.05 0.05 95 1009.4
20260502001010 44 171 0.0 0.0 0.05 0.05 0.05 94 1009.5
20260502000509 44 171 0.0 0.0 0.07 0.04 0.04 94 1009.2
20260502000005 44 190 1.0 1.0 0.07 0.04 0.04 94 1009.2
20260501235501 44 193 0.0 0.0 0.05 0.03 0.03 93 1009.2
20260501234955 44 215 1.0 1.0 0.12 0.03 0.03 93 1009.2
20260501234452 44 205 0.0 0.0 0.07 0.02 0.02 92 1009.1
20260501233951 45 206 1.0 1.0 0.05 0.01 0.01 91 1009.4
20260501233449 45 213 1.0 2.0 0.05 0.01 0.01 91 1008.9
20260501232944 45 215 1.0 1.0 0.00 0.00 0.00 86 1009.0
20260501232442 46 229 1.0 1.0 0.00 0.00 0.00 86 1008.9
20260501231939 46 206 1.0 1.0 0.00 0.00 0.00 82 1008.7
20260501231437 47 140 3.0 4.0 0.00 0.00 0.00 78 1008.6
20260501230935 48 172 0.0 1.0 0.00 0.00 0.00 79 1008.4
20260501230434 48 172 0.0 0.0 0.00 0.00 0.00 78 1008.7
20260501225930 48 167 0.0 0.0 0.00 0.00 0.00 70 1008.4
20260501225428 49 167 0.0 0.0 0.00 0.00 0.00 69 1008.4
20260501224924 49 180 0.0 1.0 0.00 0.00 0.00 68 1008.4
20260501224421 49 189 0.0 1.0 0.00 0.00 0.00 68 1008.4
20260501223918 49 206 0.0 1.0 0.00 0.00 0.00 67 1008.4
20260501223414 49 206 0.0 0.0 0.00 0.00 0.00 66 1008.6
20260501222910 49 206 1.0 2.0 0.00 0.00 0.00 67 1008.5
20260501222408 50 215 1.0 1.0 0.00 0.00 0.00 68 1008.5
20260501221904 50 187 0.0 0.0 0.00 0.00 0.00 65 1008.3
20260501221401 50 187 0.0 0.0 0.00 0.00 0.00 65 1008.6
20260501220859 50 227 1.0 1.0 0.00 0.00 0.00 67 1008.9
20260501220356 49 231 1.0 2.0 0.00 0.00 0.00 69 1008.7
20260501215852 49 207 0.0 0.0 0.00 0.00 0.00 67 1008.6
20260501215349 49 246 2.0 3.0 0.00 0.00 0.00 69 1008.7
20260501214845 49 207 1.0 1.0 0.00 0.00 0.00 71 1008.8
20260501214340 49 213 1.0 1.0 0.00 0.00 0.00 68 1008.8
20260501213836 48 173 1.0 1.0 0.00 0.00 0.00 68 1008.7
20260501213333 48 241 2.0 3.0 0.00 0.00 0.00 69 1008.7
20260501212828 49 275 4.0 6.0 0.00 0.00 0.00 70 1008.7
20260501212325 50 252 2.0 3.0 0.00 0.00 0.00 65 1008.8
20260501211817 50 159 1.0 1.0 0.00 0.00 0.00 66 1008.6
20260501211314 50 240 2.0 3.0 0.00 0.00 0.00 65 1008.6
20260501210811 50 149 0.0 0.0 0.00 0.00 0.00 63 1008.8
20260501210308 50 147 0.0 0.0 0.00 0.00 0.00 62 1008.8
20260501205804 50 306 3.0 4.0 0.00 0.00 0.00 63 1008.5